Location: Unspecified
(0.0000°N, 0.0000°E)
Time: 02:22:58
(UTC+02:00)

Centaur D-1AR AC-41 - Visible Passes

Search period start: 27 May 2016 00:00
Search period end: 06 June 2016 00:00
Orbit: 635 x 36205 km, 21.8° (Epoch: 25 May)

Date Brightness Start Highest point End Pass type
(mag) Time Alt. Az. Time Alt. Az. Time Alt. Az.
27 May 7.4 14:40:17 10° NW 21:54:34 71° SSE 00:02:19 58° SSE visible
28 May 9.3 15:41:39 10° E 20:14:10 38° ESE 21:38:52 25° ESE visible
29 May 10.9 21:21:08 10° WNW 22:46:36 30° W 02:09:55 10° W visible
30 May 4.0 06:56:08 16° WSW 07:06:53 66° SSE 07:11:03 10° E visible
30 May 6.2 18:30:03 10° WNW 20:16:17 72° W 04:39:35 10° ESE visible
31 May 7.7 15:54:24 10° NW 20:54:03 80° SSE 01:15:59 58° SSW visible
01 Jun 6.9 13:22:43 10° NW 21:14:27 58° SE 22:52:29 43° SE visible
02 Jun 9.4 16:26:33 10° E 19:00:10 22° ESE 20:23:00 10° ESE visible
03 Jun 6.6 19:51:07 10° WNW 21:28:02 48° W 05:53:32 10° E visible
04 Jun 6.9 17:09:39 10° WNW 19:19:04 90° SE 03:21:30 10° ESE visible
